EW4074 Weather Reports


Display with metric or nautical units.
time (UTC)temp
F
wind
direction
speed
MPH
gust
MPH
rain 1hr
in
rain 24hr
in
rain mn
in
humidity
%
barometer
mb
20260901124210 75 236 0.0 0.0 0.00 0.00 0.00 92 1046.5
20260901123658 75 259 0.0 0.0 0.00 0.00 0.00 94 1046.6
20260901123158 74 259 0.0 0.0 0.00 0.00 0.00 94 1046.6
20260901122652 74 259 0.0 0.0 0.00 0.00 0.00 95 1046.6
20260901122408 73 269 0.0 0.0 0.00 0.00 0.00 96 1046.5
20260901121639 72 249 0.0 0.0 0.00 0.00 0.00 98 1046.5
20260901121133 71 247 0.0 1.0 0.00 0.00 0.00 99 1046.5
20260901120627 71 248 0.0 1.0 0.00 0.00 0.00 99 1046.5
20260901120116 70 56 0.0 0.0 0.00 0.00 0.00 99 1046.5
20260901115615 70 56 0.0 0.0 0.00 0.00 0.00 99 1046.5
20260901115331 70 56 0.0 0.0 0.00 0.00 0.00 99 1046.1
20260901115048 70 56 0.0 0.0 0.00 0.00 0.00 98 1046.1
20260901114057 69 56 0.0 0.0 0.00 0.00 0.00 98 1046.1
20260901113552 69 55 0.0 0.0 0.00 0.00 0.00 98 1046.1
20260901113045 69 56 0.0 0.0 0.00 0.00 0.00 98 1046.1
20260901112751 69 55 0.0 0.0 0.00 0.00 0.00 98 1046.1
20260901112033 69 56 0.0 0.0 0.00 0.00 0.00 98 1046.1
20260901111528 69 56 0.0 0.0 0.00 0.00 0.00 98 1046.1
20260901111021 69 55 0.0 0.0 0.00 0.00 0.00 98 1046.1
20260901110516 69 56 0.0 0.0 0.00 0.00 0.00 98 1046.0
20260901110009 69 56 0.0 0.0 0.00 0.00 0.00 98 1046.0
20260901105504 69 56 0.0 0.0 0.00 0.00 0.00 97 1046.0
20260901104952 69 55 0.0 0.0 0.00 0.00 0.00 97 1045.7
20260901104453 70 56 0.0 0.0 0.00 0.00 0.00 97 1045.7
20260901103944 70 56 0.0 0.0 0.00 0.00 0.00 98 1045.7
20260901103440 70 56 0.0 0.0 0.00 0.00 0.00 98 1045.6
20260901103422 70 56 0.0 0.0 0.00 0.00 0.00 98 1045.6
20260901102428 70 56 0.0 0.0 0.00 0.00 0.00 98 1045.6
20260901101921 70 56 0.0 0.0 0.00 0.00 0.00 98 1045.6
20260901101639 70 56 0.0 0.0 0.00 0.00 0.00 98 1045.6
20260901100909 70 56 0.0 0.0 0.00 0.00 0.00 98 1045.6
20260901100404 70 55 0.0 0.0 0.00 0.00 0.00 98 1045.9
20260901095856 70 56 0.0 0.0 0.00 0.00 0.00 98 1045.9
20260901095352 70 56 0.0 1.0 0.00 0.00 0.00 98 1045.7
20260901094845 70 56 0.0 1.0 0.00 0.00 0.00 98 1045.7
20260901094558 70 215 0.0 0.0 0.00 0.00 0.00 98 1045.7
20260901093828 70 215 0.0 0.0 0.00 0.00 0.00 98 1045.6
20260901093329 70 215 0.0 0.0 0.00 0.00 0.00 98 1045.6
20260901093044 70 213 0.0 0.0 0.00 0.00 0.00 98 1045.6
20260901092316 70 213 0.0 0.0 0.00 0.00 0.00 98 1045.6
20260901091809 70 213 0.0 0.0 0.00 0.00 0.00 98 1045.6
20260901091304 70 213 0.0 0.0 0.00 0.00 0.00 98 1045.6
20260901091018 70 213 0.0 0.0 0.00 0.00 0.00 98 1045.6
20260901090248 70 213 0.0 0.0 0.00 0.00 0.00 98 1045.6
20260901085745 70 213 0.0 0.0 0.00 0.00 0.00 98 1045.6
20260901085240 70 213 0.0 0.0 0.00 0.00 0.00 98 1045.6
20260901084733 70 213 0.0 0.0 0.00 0.00 0.00 98 1045.6
20260901084446 70 213 0.0 0.0 0.00 0.00 0.00 98 1045.6
20260901083727 69 213 0.0 0.0 0.00 0.00 0.00 98 1045.7
20260901083224 69 213 0.0 0.0 0.00 0.00 0.00 98 1045.7
20260901082723 70 213 0.0 0.0 0.00 0.00 0.00 98 1045.7
20260901082221 69 213 0.0 0.0 0.00 0.00 0.00 98 1045.9
20260901081721 69 213 0.0 0.0 0.00 0.00 0.00 98 1045.9
20260901081221 69 213 0.0 0.0 0.00 0.00 0.00 98 1045.9
20260901080719 69 213 0.0 0.0 0.00 0.00 0.00 98 1045.9
20260901080658 69 213 0.0 0.0 0.00 0.00 0.00 98 1045.9
20260901075940 69 213 0.0 0.0 0.00 0.00 0.00 98 1045.9
20260901075437 69 213 0.0 0.0 0.00 0.00 0.00 98 1045.9
20260901074711 70 213 0.0 0.0 0.00 0.00 0.00 98 1045.9
20260901074209 69 213 0.0 0.0 0.00 0.00 0.00 98 1045.9
20260901073706 70 213 0.0 0.0 0.00 0.00 0.00 98 1045.8
20260901073206 69 213 0.0 0.0 0.00 0.00 0.00 98 1045.8
20260901072709 70 213 0.0 0.0 0.00 0.00 0.00 98 1045.8
20260901072209 70 213 0.0 0.0 0.00 0.00 0.00 98 1045.6
20260901071925 70 213 0.0 0.0 0.00 0.00 0.00 97 1045.6
20260901071202 70 213 0.0 0.0 0.00 0.00 0.00 97 1045.6
20260901070651 70 213 0.0 0.0 0.00 0.00 0.00 97 1045.9
20260901070148 70 213 0.0 0.0 0.00 0.00 0.00 97 1045.9
20260901065648 70 213 0.0 0.0 0.00 0.00 0.00 97 1045.9
20260901065408 70 213 0.0 0.0 0.00 0.00 0.00 97 1046.0
20260901064649 71 213 0.0 0.0 0.00 0.00 0.00 97 1046.0
20260901064149 71 213 0.0 0.0 0.00 0.00 0.00 98 1046.0
20260901063649 71 213 0.0 0.0 0.00 0.00 0.00 97 1046.1
20260901063151 71 213 0.0 0.0 0.00 0.00 0.00 98 1046.1
20260901063144 71 213 0.0 0.0 0.00 0.00 0.00 98 1046.1
20260901062145 71 213 0.0 0.0 0.00 0.00 0.00 98 1046.1
20260901061635 71 213 0.0 0.0 0.00 0.00 0.00 98 1046.1
20260901061124 71 213 0.0 0.0 0.00 0.00 0.00 98 1046.1
20260901060626 71 213 0.0 0.0 0.00 0.00 0.00 98 1046.4
20260901060125 71 213 0.0 0.0 0.00 0.00 0.00 97 1046.4
20260901055847 71 213 0.0 0.0 0.00 0.00 0.00 97 1046.4
20260901055348 71 213 0.0 0.0 0.00 0.00 0.00 97 1046.4
20260901054625 71 213 0.0 0.0 0.00 0.00 0.00 97 1046.4
20260901054125 71 213 0.0 0.0 0.00 0.00 0.00 97 1046.4
20260901053624 72 213 0.0 0.0 0.00 0.00 0.00 97 1046.5
20260901053345 72 213 0.0 0.0 0.00 0.00 0.00 98 1046.5
20260901052617 72 213 0.0 0.0 0.00 0.00 0.00 97 1046.5
20260901052116 72 213 0.0 0.0 0.00 0.00 0.00 98 1046.6
20260901051605 72 213 0.0 0.0 0.00 0.00 0.00 98 1046.6
20260901051104 72 213 0.0 0.0 0.00 0.00 0.00 98 1046.6
20260901050601 72 213 0.0 0.0 0.00 0.00 0.00 98 1046.6
20260901050053 72 213 0.0 0.0 0.00 0.00 0.00 98 1046.6
20260901045548 72 213 0.0 0.0 0.00 0.00 0.00 98 1046.6
20260901045034 72 213 0.0 0.0 0.00 0.00 0.00 98 1046.6
20260901044536 72 213 0.0 0.0 0.00 0.00 0.00 98 1046.6
20260901044248 72 213 0.0 0.0 0.00 0.00 0.00 98 1046.6
20260901043524 72 213 0.0 0.0 0.00 0.00 0.00 98 1046.6
20260901043017 72 213 0.0 0.0 0.00 0.00 0.00 98 1046.6
20260901042512 72 213 0.0 0.0 0.00 0.00 0.00 98 1046.6
20260901042229 72 213 0.0 0.0 0.00 0.00 0.00 98 1046.7
20260901041453 72 213 0.0 0.0 0.00 0.00 0.00 98 1046.7
20260901041219 72 213 0.0 0.0 0.00 0.00 0.00 97 1046.7
20260901040448 72 213 0.0 0.0 0.00 0.00 0.00 98 1046.9
20260901035941 72 213 0.0 0.0 0.00 0.00 0.00 98 1046.9
20260901035436 72 213 0.0 0.0 0.00 0.00 0.00 98 1046.9
20260901034929 72 213 0.0 0.0 0.00 0.00 0.00 98 1047.1
20260901034424 72 213 0.0 0.0 0.00 0.00 0.00 98 1047.1
20260901033909 72 213 0.0 0.0 0.00 0.00 0.00 98 1047.1
20260901033412 72 213 0.0 0.0 0.00 0.00 0.00 98 1047.1
20260901032904 72 213 0.0 0.0 0.00 0.00 0.00 97 1047.1
20260901032359 72 213 0.0 0.0 0.00 0.00 0.00 97 1047.1
20260901032117 72 213 0.0 0.0 0.00 0.00 0.00 97 1047.1
20260901031348 72 213 0.0 0.0 0.00 0.00 0.00 97 1047.1
20260901030840 72 213 0.0 0.0 0.00 0.00 0.00 97 1047.1
20260901030329 72 213 0.0 0.0 0.00 0.00 0.00 97 1047.1
20260901025828 72 213 0.0 0.0 0.00 0.00 0.00 97 1047.1
20260901025323 72 213 0.0 0.0 0.00 0.00 0.00 97 1047.2
20260901024816 72 213 0.0 0.0 0.00 0.00 0.00 97 1047.2
20260901024535 71 213 0.0 0.0 0.00 0.00 0.00 97 1047.2
20260901023804 71 213 0.0 0.0 0.00 0.00 0.00 97 1047.2
20260901023259 71 213 0.0 0.0 0.00 0.00 0.00 97 1047.2
20260901022746 71 213 0.0 0.0 0.00 0.00 0.00 97 1047.2
20260901022247 71 213 0.0 0.0 0.00 0.00 0.00 97 1047.2
20260901021740 71 213 0.0 0.0 0.00 0.00 0.00 97 1047.2
20260901021234 71 213 0.0 0.0 0.00 0.00 0.00 97 1047.2
20260901020728 71 213 0.0 0.0 0.00 0.00 0.00 97 1047.2
20260901020443 71 213 0.0 0.0 0.00 0.00 0.00 96 1047.2
20260901015716 71 213 0.0 0.0 0.00 0.00 0.00 96 1047.2
20260901015203 71 213 0.0 0.0 0.00 0.00 0.00 96 1047.1
20260901014704 71 213 0.0 0.0 0.00 0.00 0.00 96 1047.1
20260901014200 72 213 0.0 0.0 0.00 0.00 0.00 96 1047.1
20260901013700 72 213 0.0 0.0 0.00 0.00 0.00 96 1047.0
20260901013158 72 213 0.0 0.0 0.00 0.00 0.00 96 1047.0
20260901012656 72 213 0.0 0.0 0.00 0.00 0.00 96 1047.0
20260901012154 72 213 0.0 0.0 0.00 0.00 0.00 96 1046.6
20260901011652 72 213 0.0 0.0 0.00 0.00 0.00 95 1046.6
20260901011150 72 213 0.0 0.0 0.00 0.00 0.00 95 1046.6
20260901010650 73 213 0.0 0.0 0.00 0.00 0.00 95 1046.6
20260901010149 73 213 0.0 0.0 0.00 0.00 0.00 95 1046.6
20260901005648 73 213 0.0 0.0 0.00 0.00 0.00 95 1046.6
20260901005146 73 213 0.0 0.0 0.00 0.00 0.00 95 1046.5
20260901004644 73 213 0.0 0.0 0.00 0.00 0.00 94 1046.5
20260901004405 74 213 0.0 0.0 0.00 0.00 0.00 94 1046.5
20260901003644 74 213 0.0 0.0 0.00 0.00 0.00 94 1046.4
20260901003142 74 213 0.0 0.0 0.00 0.00 0.00 93 1046.4
20260901002640 74 213 0.0 0.0 0.00 0.00 0.00 93 1046.4
20260901002140 75 213 0.0 0.0 0.00 0.00 0.00 93 1046.5
20260901001858 75 213 0.0 0.0 0.00 0.00 0.00 92 1046.5
20260901001138 75 213 0.0 0.0 0.00 0.00 0.00 92 1046.5
20260901000637 76 213 0.0 0.0 0.00 0.00 0.00 92 1046.4
20260901000136 76 213 0.0 0.0 0.00 0.00 0.00 91 1046.4
20260831235626 76 213 0.0 0.0 0.00 0.00 0.00 91 1046.4
20260831235124 77 213 0.0 0.0 0.00 0.00 0.00 90 1046.5
20260831234618 78 213 0.0 0.0 0.00 0.00 0.00 90 1046.5
20260831234330 78 213 0.0 0.0 0.00 0.00 0.00 89 1046.5
20260831233833 78 213 0.0 0.0 0.00 0.00 0.00 89 1046.5
20260831233333 79 213 0.0 0.0 0.00 0.00 0.00 89 1046.5
20260831232608 79 213 0.0 0.0 0.00 0.00 0.00 89 1046.5
20260831232106 79 213 0.0 0.0 0.00 0.00 0.00 88 1046.6
20260831231607 80 213 0.0 0.0 0.00 0.00 0.00 88 1046.6
20260831231106 80 213 0.0 0.0 0.00 0.00 0.00 88 1046.6
20260831230604 80 213 0.0 0.0 0.00 0.00 0.00 88 1046.6
20260831230104 80 213 0.0 0.0 0.00 0.00 0.00 87 1046.6
20260831225603 80 213 0.0 0.0 0.00 0.00 0.00 86 1046.6
20260831225320 81 213 0.0 0.0 0.00 0.00 0.00 86 1046.7
20260831224559 81 223 0.0 0.0 0.00 0.00 0.00 85 1046.7
20260831224057 82 142 0.0 0.0 0.00 0.00 0.00 86 1046.7
20260831223558 82 142 0.0 0.0 0.00 0.00 0.00 85 1046.9
20260831223056 82 142 0.0 0.0 0.00 0.00 0.00 84 1046.9
20260831222558 82 142 0.0 0.0 0.00 0.00 0.00 84 1046.9
20260831222058 83 142 0.0 0.0 0.00 0.00 0.00 83 1046.8
20260831221552 83 142 0.0 1.0 0.00 0.00 0.00 82 1046.8
20260831221040 83 196 0.0 2.0 0.00 0.00 0.00 82 1046.8
20260831220540 83 226 1.0 2.0 0.00 0.00 0.00 82 1046.9
20260831220039 83 156 1.0 2.0 0.00 0.00 0.00 81 1046.9
20260831215540 83 157 1.0 2.0 0.00 0.00 0.00 81 1046.9
20260831215039 83 157 1.0 3.0 0.00 0.00 0.00 81 1047.1
20260831214539 83 154 0.0 3.0 0.00 0.00 0.00 81 1047.1
20260831214040 83 168 0.0 1.0 0.00 0.00 0.00 82 1047.1
20260831213540 83 167 1.0 3.0 0.00 0.00 0.00 81 1047.1
20260831213040 83 186 1.0 3.0 0.00 0.00 0.00 81 1047.1
20260831212534 83 173 1.0 3.0 0.00 0.00 0.00 81 1047.1
20260831212517 83 135 1.0 3.0 0.00 0.00 0.00 80 1047.1
20260831211519 83 158 1.0 3.0 0.00 0.00 0.00 81 1047.1
20260831211013 83 162 1.0 2.0 0.00 0.00 0.00 80 1047.1
20260831210726 83 141 0.0 2.0 0.00 0.02 0.00 80 1047.1
20260831205957 83 250 0.0 2.0 0.00 0.04 0.00 80 1047.1
20260831205455 83 148 1.0 3.0 0.00 0.06 0.00 81 1047.1
20260831204949 83 206 1.0 3.0 0.00 0.06 0.00 80 1047.3
20260831204439 83 225 0.0 3.0 0.00 0.06 0.00 81 1047.3
20260831203937 83 163 0.0 3.0 0.00 0.06 0.00 82 1047.3
20260831203426 82 157 0.0 0.0 0.00 0.06 0.00 82 1047.5
20260831202925 82 137 0.0 0.0 0.00 0.06 0.00 83 1047.5
20260831202415 82 169 0.0 0.0 0.00 0.06 0.00 82 1047.5
20260831202132 82 233 0.0 2.0 0.00 0.06 0.00 82 1047.5
20260831201847 82 202 0.0 2.0 0.00 0.06 0.00 82 1047.5
20260831200901 82 157 1.0 2.0 0.00 0.06 0.00 81 1047.5
20260831200355 83 150 0.0 2.0 0.00 0.06 0.00 81 1047.6
20260831200108 83 153 0.0 2.0 0.00 0.06 0.00 80 1047.6
20260831195340 83 148 1.0 3.0 0.00 0.06 0.00 80 1047.6
20260831195049 83 194 1.0 3.0 0.00 0.06 0.00 79 1047.6
20260831194556 83 167 1.0 3.0 0.00 0.06 0.00 80 1047.6
20260831193825 83 237 1.0 3.0 0.00 0.06 0.00 81 1047.8
20260831193320 83 223 0.0 2.0 0.00 0.06 0.00 81 1047.8
20260831192813 82 222 0.0 2.0 0.00 0.06 0.00 81 1047.8
20260831192308 82 142 0.0 2.0 0.00 0.06 0.00 82 1048.0
20260831191800 82 200 0.0 0.0 0.00 0.06 0.00 81 1048.0
20260831191251 82 201 0.0 1.0 0.00 0.06 0.00 80 1048.0
20260831191006 82 242 0.0 2.0 0.00 0.06 0.00 81 1047.9
20260831190244 82 208 0.0 3.0 0.00 0.06 0.00 81 1047.9
20260831190002 82 205 0.0 3.0 0.00 0.06 0.00 81 1047.9
20260831185232 82 236 0.0 3.0 0.00 0.06 0.00 81 1048.1
20260831184720 82 259 0.0 2.0 0.00 0.06 0.00 81 1048.1
20260831184448 82 170 1.0 3.0 0.00 0.06 0.00 81 1048.1
20260831183708 82 157 1.0 3.0 0.00 0.06 0.00 80 1048.1
20260831183207 81 174 2.0 3.0 0.00 0.06 0.00 80 1048.1
20260831182701 82 158 1.0 2.0 0.00 0.06 0.00 80 1048.1
20260831182155 81 229 0.0 2.0 0.00 0.06 0.00 81 1048.2
20260831181648 81 165 1.0 3.0 0.00 0.06 0.00 80 1048.2
20260831181141 81 157 1.0 3.0 0.00 0.06 0.00 80 1048.2
20260831180631 81 161 1.0 3.0 0.00 0.06 0.00 81 1048.4
20260831180342 81 160 1.0 3.0 0.00 0.06 0.00 81 1048.4
20260831175613 81 257 1.0 4.0 0.00 0.06 0.00 81 1048.4
20260831175112 81 146 1.0 4.0 0.00 0.06 0.00 80 1048.3
20260831174839 81 193 1.0 3.0 0.00 0.06 0.00 80 1048.3
20260831174113 81 149 1.0 2.0 0.00 0.06 0.00 80 1048.3
20260831173835 82 217 1.0 3.0 0.00 0.06 0.00 79 1048.2
20260831173113 82 239 1.0 4.0 0.00 0.06 0.00 80 1048.2
20260831172613 82 223 1.0 4.0 0.00 0.06 0.00 78 1048.2
20260831172335 83 208 1.0 4.0 0.00 0.06 0.00 79 1048.3
20260831171831 83 149 0.0 4.0 0.00 0.06 0.00 78 1048.3
20260831171107 83 197 0.0 1.0 0.00 0.06 0.00 77 1048.3
20260831170824 83 190 1.0 2.0 0.00 0.06 0.00 77 1048.6
20260831170049 83 196 1.0 4.0 0.00 0.06 0.00 77 1048.6
20260831165548 83 166 1.0 4.0 0.00 0.06 0.00 76 1048.6
20260831165048 84 285 1.0 3.0 0.00 0.06 0.00 76 1048.6
20260831164815 84 290 1.0 3.0 0.00 0.07 0.00 75 1048.6
20260831164052 85 103 1.0 4.0 0.00 0.13 0.00 74 1048.6
20260831163548 84 165 1.0 4.0 0.00 0.14 0.00 76 1048.7
20260831163048 83 204 1.0 3.0 0.00 0.14 0.00 76 1048.7
20260831162549 83 300 0.0 2.0 0.00 0.14 0.00 81 1048.7
20260831162047 83 241 1.0 4.0 0.00 0.14 0.00 76 1048.7
20260831161541 83 168 1.0 4.0 0.00 0.14 0.00 77 1048.7
20260831161035 83 290 1.0 4.0 0.00 0.14 0.00 76 1048.7
20260831160529 83 146 2.0 5.0 0.00 0.14 0.00 77 1048.7
20260831160253 83 217 2.0 5.0 0.00 0.14 0.00 77 1048.7
20260831155517 83 241 1.0 5.0 0.00 0.14 0.00 77 1048.7
20260831155011 83 107 1.0 5.0 0.00 0.14 0.00 77 1049.1
20260831154505 82 224 1.0 4.0 0.00 0.14 0.00 79 1049.1
20260831153959 82 151 1.0 4.0 0.00 0.14 0.00 79 1049.1
20260831153716 82 160 1.0 3.0 0.00 0.14 0.00 80 1048.9
20260831153210 82 223 1.0 3.0 0.00 0.14 0.00 79 1048.9
20260831152436 82 225 0.0 3.0 0.00 0.14 0.00 79 1048.9
20260831151933 82 223 0.0 3.0 0.00 0.14 0.00 79 1049.2
20260831151428 81 171 1.0 4.0 0.00 0.14 0.00 81 1049.2
20260831151145 81 209 1.0 4.0 0.00 0.14 0.00 80 1049.2
20260831150415 81 161 0.0 2.0 0.00 0.14 0.00 82 1049.3
20260831145909 81 288 0.0 1.0 0.00 0.14 0.00 81 1049.3
20260831145404 80 344 1.0 3.0 0.00 0.14 0.00 82 1049.3
20260831144852 79 182 1.0 3.0 0.00 0.14 0.00 83 1048.9
20260831144351 79 157 0.0 2.0 0.00 0.14 0.00 85 1048.9
20260831144106 78 138 0.0 1.0 0.00 0.14 0.00 86 1048.9
20260831143338 78 83 0.0 1.0 0.00 0.14 0.00 87 1048.9
20260831142832 78 94 0.0 1.0 0.00 0.14 0.00 87 1048.9
20260831142327 78 96 0.0 2.0 0.00 0.14 0.00 87 1049.1
20260831141820 78 96 0.0 2.0 0.00 0.14 0.00 86 1049.1
20260831141542 78 207 0.0 0.0 0.00 0.14 0.00 87 1049.1
20260831140808 78 207 0.0 0.0 0.00 0.14 0.00 87 1049.1
20260831140302 78 205 0.0 2.0 0.00 0.14 0.00 86 1049.1
20260831135756 78 121 1.0 2.0 0.00 0.14 0.00 87 1049.1
20260831135251 78 187 1.0 3.0 0.00 0.14 0.00 87 1049.2
20260831135006 78 153 1.0 3.0 0.00 0.14 0.00 87 1049.2
20260831134238 78 130 0.0 2.0 0.00 0.14 0.00 87 1049.2
20260831133728 78 186 1.0 3.0 0.00 0.14 0.00 87 1049.3
20260831133226 77 130 1.0 3.0 0.00 0.14 0.00 88 1049.3
20260831132720 77 203 1.0 3.0 0.00 0.14 0.00 89 1049.3
20260831132213 76 212 1.0 3.0 0.00 0.14 0.00 89 1049.2
20260831131710 76 127 0.0 1.0 0.00 0.14 0.00 92 1049.2
20260831131202 75 127 0.0 2.0 0.00 0.14 0.00 92 1049.2
20260831130657 75 131 0.0 2.0 0.00 0.14 0.00 93 1049.3
20260831130146 75 237 0.0 0.0 0.00 0.14 0.00 95 1049.3
20260831125645 74 237 0.0 0.0 0.00 0.14 0.00 96 1049.3
20260831125138 73 152 0.0 0.0 0.00 0.14 0.00 98 1049.2
20260831125121 73 153 0.0 0.0 0.00 0.14 0.00 99 1049.2